Regional Weather Roundup
Issued by NWS

Home | Current Version | Previous Version | Graphics & Text | Print | Product List | Glossary On
Versions: 1 2 3 4 5 6 7 8 9 10 11 12 13 14 15 16 17 18 19 20 21 22 23 24 25 26 27 28 29 30 31 32 33 34 35 36 37 38 39 40 41 42 43 44 45 46 47 48 49 50
038
ASUS44 KMEG 212000
RWRTN
TENNESSEE HOURLY STATE WEATHER ROUNDUP
NATIONAL WEATHER SERVICE MEMPHIS TN
200 PM CST TUE FEB 21 2017

TNZ002-004-019-021-049-052-054-088>092-212100-
WEST TENNESSEE

CITY           SKY/WX    TMP DP  RH WIND       PRES   REMARKS
MEMPHIS INTL   CLOUDY    66  58  75 S9        29.84F
NWS MEMPHIS      N/A     66 N/A N/A MISG        N/A
JACKSON        CLOUDY    64  58  80 S6        29.87F
UNION CITY     CLOUDY    63  63 100 CALM      29.88F
PARIS          CLOUDY    64  57  77 W6        29.90S
$$

TNZ008-025-027-028-033-062-065-066-212100-
NORTH MIDDLE TENNESSEE

CITY           SKY/WX    TMP DP  RH WIND       PRES   REMARKS
NASHVILLE      CLOUDY    70  53  54 S17G25    29.92F
CLARKSVILLE    CLOUDY    71  52  50 SW9       29.89S
SMYRNA         CLOUDY    69  54  58 S16G25    29.93F
CROSSVILLE     CLOUDY    63  47  55 S6        30.01F
$$

TNZ061-075-076-078-094-096-097-212100-
SOUTH MIDDLE TENNESSEE

CITY           SKY/WX    TMP DP  RH WIND       PRES   REMARKS
TULLAHOMA      PTSUNNY   61  54  77 S10       29.97F
WINCHESTER     CLOUDY    63  54  72 S12       29.97F
MCMINNVILLE    CLOUDY    66  52  59 S8        29.97F
COLUMBIA       PTSUNNY   64  61  88 SE9       29.87F
SHELBYVILLE    CLOUDY    64  55  72 SE12      29.95S
$$

TNZ017-018-042-046-047-212100-
NORTHEAST TENNESSEE

CITY           SKY/WX    TMP DP  RH WIND       PRES   REMARKS
TRI CITIES     PTSUNNY   69  44  40 S7        30.04F
$$

TNZ012-013-036-069-073-074-212100-
CENTRAL EAST TENNESSEE

CITY           SKY/WX    TMP DP  RH WIND       PRES   REMARKS
KNOXVILLE      CLOUDY    72  45  37 S10       29.97F
OAK RIDGE      CLOUDY    71  44  37 S5        30.00F
GATLINBURG     MOSUNNY   72  43  35 VRB6      29.99S
$$

TNZ083-085-099-212100-
SOUTHEAST TENNESSEE

CITY           SKY/WX    TMP DP  RH WIND       PRES   REMARKS
CHATTANOOGA    CLOUDY    66  46  48 S6        29.99F
$$

SKY/WX REPORTED AS FAIR MEANS FEW OR NO CLOUDS BELOW
12 THOUSAND FEET.





USA.gov is the U.S. government's official web portal to all federal, state and local government web resources and services.